Flag for Canada Weather past 2 weeks in Burlington, Ontario, Canada

Now
43 °F

Quite cool.


Feels Like: 41 °F
Forecast: 40 / 58 °F
Wind: 5 mph from West

Location: Burlington Piers

Current Time: Oct 24, 2014 at 8:29:16 AM

Latest Report: Oct 24, 2014 at 7:00 AM


Visibility: N/A

Pressure: 30.06 "Hg

Humidity: 80%

Dew point: 38 °F

Location of BurlingtonLocation

Historic Weather in Burlington — Graph

°F

Burlington temperature yesterday

Maximum temperature yesterday: 56 °F (at 12:00 PM)
Minimum temperature yesterday: 48 °F (at 7:00 AM)
Average temperature yesterday: 51 °F

Past Weeks' High & Low Weather Summary

 TemperatureHumidityPressure
High76 °F (Oct 14, 3:00 PM)100% (Oct 16, 10:00 AM)30.29 "Hg (Oct 16, 10:00 AM)
Low40 °F (Oct 19, 10:00 AM)35% (Oct 11, 5:00 PM)29.48 "Hg (Oct 17, 10:00 PM)
Average52 °F74%29.95 "Hg
* Reported Oct 9 7:00 AM — Oct 24 7:00 AM, Burlington, Weather by CustomWeather, © 2014

Note: Actual official high and low records may vary slightly from our data, if they occured in-between our weather recording intervals... More about our weather records

Advertising

Burlington weather history for previous 24 hours

 ConditionsComfort  
Time TempWeatherWind HumidityBarometerVisibility
7:00 AM
Oct 24
43 °FQuite cool.5 mph80%30.06 "HgN/A
5:00 AM45 °FQuite cool.5 mph82%30.06 "HgN/A
4:00 AM45 °FCool.3 mph80%30.04 "HgN/A
3:00 AM47 °FCool.3 mph73%30.04 "HgN/A
2:00 AM47 °FCool.5 mph79%30.05 "HgN/A
1:00 AM48 °FCool.5 mph75%30.05 "HgN/A
12:00 AM49 °FCool.3 mph74%30.05 "HgN/A
11:00 PM
Oct 23
51 °FCool.7 mph69%30.06 "HgN/A
10:00 PM51 °FCool.9 mph65%30.06 "HgN/A
9:00 PM52 °FCool.13 mph61%30.06 "HgN/A
8:00 PM54 °FCool.13 mph57%30.06 "HgN/A
7:00 PM53 °FCool.2 mph65%30.06 "HgN/A
6:00 PM52 °FCool.1 mph69%30.06 "HgN/A
2:00 PM52 °FCool.8 mph67%30.10 "HgN/A
1:00 PM54 °FCool.6 mph61%30.11 "HgN/A
12:00 PM56 °FRefreshingly cool.10 mph52%30.14 "HgN/A
11:00 AM53 °FCool.3 mph58%30.16 "HgN/A
10:00 AM51 °FCool.5 mph65%30.18 "HgN/A
9:00 AM50 °FCool.12 mph65%30.17 "HgN/A
8:00 AM48 °FCool.13 mph70%30.17 "HgN/A
Weather by CustomWeather, © 2014

See weather overviewHow to use our weather pages